GEESAT-4 03 (65121 NORAD) Tracking and Keplerian Element Data

This shows tracking and keplerian element data for the satellite.

Feedback or suggestion? Click here.




ElementValue
Catalog65121
NameGEESAT-4 03
Epoch Orbit1985
Epoch Day354.17442137
Epoch Year2025
RAAN283.9159
Inclination49.9931
Eccentricity0.002156
Argument of Perigee96.4215
Mean Anonmoly263.9179
Mean Motion14.83416962
Decay Rate1.556E-05
L11 65121U 25170C 25354.17442137 .00001556 00000+0 21461-3 0 9991
L22 65121 49.9931 283.9159 0021560 96.4215 263.9179 14.83416962 19854



Live tracking and technical data element details for GEESAT-4 03 (NORAD 65121). GEESAT-4 03 can be tracked NOW for your location showing map with azimuth and elevation plus other details from your city location.







IsCatalogInMostPopularTable: catalog: 65121, numindb: 2
Update: records affected: 1



GetName: 65121 GEESAT-4 03

Hit Count: updated at: Wed, 15 Apr 2026 01:41:06 GMT